Regional Weather Roundup
Issued by NWS Portland, ME

Home | Current Version | Previous Version | Text Only | Print | Product List | Glossary On
Versions: 1 2 3 4 5 6 7 8 9 10 11 12 13 14 15 16 17 18 19 20 21 22 23 24 25 26 27 28 29 30 31 32 33 34 35 36 37 38 39 40 41 42 43 44 45 46 47 48 49 50
000
ASUS41 KGYX 282210
RWRGYX
WEATHER ROUNDUP FOR MAINE AND NEW HAMPSHIRE
NATIONAL WEATHER SERVICE GRAY ME
600 PM EDT FRI AUG 28 2015

MEZ002-005-006-010-012-015-018-020-021-024-026-027-029-282300-
MAINE

CITY           SKY/WX    TMP DP  RH WIND       PRES   REMARKS
PORTLAND       MOSUNNY   71  57  61 S14       30.09S
SANFORD        SUNNY     75  52  43 W7        30.10S
BAR HARBOR     SUNNY     73  57  56 SW5       30.06S
WISCASSET      SUNNY     73  56  54 SW8       30.10S
ROCKLAND       SUNNY     72  57  60 SW10G16   30.07R
FRYEBURG       SUNNY     77  60  55 CALM      30.09S
LEWISTONAUBURN SUNNY     75 N/A N/A NW3       30.09S
AUGUSTA        SUNNY     75  53  46 W5        30.09S
WATERVILLE     SUNNY     73  57  56 SW3       30.05S
BANGOR         MOSUNNY   75  55  49 W5        30.06F
GREENVILLE       N/A     67  55  65 VRB3      30.08S
MILLINOCKET    SUNNY     75  56  51 CALM      30.06S
HOULTON        SUNNY     71  56  58 SW5       30.03S
PRESQUE ISLE   SUNNY     73  54  49 SW5       30.02S
FRENCHVILLE    MOSUNNY   70  54  56 SW6       30.02S
CARIBOU        SUNNY     72  54  53 W6        30.02S
$$

NHZ002-005-008-009-011-012-014-282300-
NEW HAMPSHIRE

CITY           SKY/WX    TMP DP  RH WIND       PRES   REMARKS
PORTSMOUTH     MOSUNNY   73  58  59 S9        30.08S
ROCHESTER      MOSUNNY   77  53  43 VRB3      30.09S
NASHUA         MOSUNNY   79  53  40 W8        30.11R
MANCHESTER     MOSUNNY   77  51  40 W6        30.09R
CONCORD        SUNNY     78  51  38 W7        30.11R
LACONIA        SUNNY     75  54  46 W5        30.10R
PLYMOUTH       FAIR      74  54  49 CALM      30.11R
BERLIN         SUNNY     72  54  53 VRB3      30.13R
WHITEFIELD     SUNNY     71  53  52 W5        30.14R
JAFFREY        MOSUNNY   74  53  48 VRB6      30.15R
KEENE          SUNNY     75  54  46 SW5       30.13S
LEBANON        SUNNY     77  54  44 NW8       30.11S
MT WASHINGTON  MOSUNNY   50  39  66 CALM        N/A
$$

VTZ005-007-008-282300-
VERMONT

CITY           SKY/WX    TMP DP  RH WIND       PRES   REMARKS
ST JOHNSBURY     N/A     73  52  47 MISG      30.11S
MONTPELIER     SUNNY     70  53  54 NW5       30.18R
BURLINGTON     MOSUNNY   77  52  41 CALM      30.11S
$$

MAZ007-012-024-CTZ003-RIZ002-NYZ038-NYZ072-282300-
SOUTHERN NEW ENGLAND AND NY

CITY           SKY/WX    TMP DP  RH WIND       PRES   REMARKS
BOSTON         MOSUNNY   72  61  68 E10       30.11R
WORCESTER      SUNNY     73  51  46 W5        30.15R
NANTUCKET      SUNNY     73  57  57 SW8       30.13S
PROVIDENCE     MOSUNNY   77  58  51 SE8       30.11S
HARTFORD       MOSUNNY   79  55  43 NW5       30.12R
ALBANY         PTSUNNY   74  55  51 W6        30.14S
NEW YORK CITY  MOSUNNY   80  51  36 CALM      30.12S
$$

ANZ081-ANZ082-ANZ150-NHZ014-MEZ023>029-282300-
COASTAL MARINE OBSERVATIONS

STATION/POSITION TIME  TEMP    WIND        PRES    WAVE
                       AIR SEA DIR/SP/G            HT/PER
                 (UTC) (F)     (DEG/KT/KT) (MB)    (FT/S)
MOUNT DESERT ROC 2200   62     220/ 15/ 15 1019.0S
MATINICUS ROCK   2200   63     240/ 14/ 15 1018.7F
ISLE OF SHOALS   2200   69     170/ 15/ 16 1018.7S
JEFFREYS LEDGE   2103      71                N/A     3/12
CASHES LEDGE BUO 2150   69                 1019.2F   3/12
GEORGES BANK BUO 2150   70 70  340/  6/  8 1019.1R   6/11
$$

.............KEY..............
   WCI - WIND CHILL
   TC  - TEMPERATURE IN CELSIUS
   VSB - VISIBILITY IN MILES
   HX  - HEAT INDEX
   FAIR- INDICATES FEW OR NO CLOUDS BELOW 12,000 FT, WITH NO
         SIGNIFICANT WEATHER AND/OR OBSTRUCTIONS TO VISIBILITY.




USA.gov is the U.S. government's official web portal to all federal, state and local government web resources and services.